Time,TemperatureF,DewpointF,PressureIn,WindDirection,WindDirectionDegrees,WindSpeedMPH,WindSpeedGustMPH,Humidity,HourlyPrecipIn,Conditions,Clouds,dailyrainin,SoftwareType,DateUTC
2013-08-18 00:01:00,76.6,57.7,-100.00,ESE,113,0.0,0.0,52,0.00,,,0.00,meteohub,2013-08-18 05:01:00,
2013-08-18 00:02:00,76.6,57.7,-100.00,ESE,113,0.0,0.0,52,0.00,,,0.00,meteohub,2013-08-18 05:02:00,
2013-08-18 00:07:00,76.6,57.7,-100.00,ESE,113,0.0,0.0,52,0.00,,,0.00,meteohub,2013-08-18 05:07:00,
2013-08-18 00:09:00,76.5,57.6,-100.00,ESE,113,0.0,0.0,52,0.00,,,0.00,meteohub,2013-08-18 05:09:00,
2013-08-18 00:13:00,76.3,57.4,-100.00,ESE,113,0.0,0.0,52,0.00,,,0.00,meteohub,2013-08-18 05:13:00,
2013-08-18 00:15:00,76.3,57.4,-100.00,ESE,113,0.0,0.0,52,0.00,,,0.00,meteohub,2013-08-18 05:15:00,
2013-08-18 00:17:00,76.3,57.4,-100.00,East,90,0.0,0.0,52,0.00,,,0.00,meteohub,2013-08-18 05:17:00,
2013-08-18 00:21:00,75.9,57.0,-100.00,East,90,0.0,0.0,52,0.00,,,0.00,meteohub,2013-08-18 05:21:00,
2013-08-18 00:23:00,75.9,57.6,-100.00,East,90,0.0,0.0,53,0.00,,,0.00,meteohub,2013-08-18 05:23:00,
2013-08-18 00:27:00,75.9,57.6,-100.00,East,90,0.0,0.0,53,0.00,,,0.00,meteohub,2013-08-18 05:27:00,
2013-08-18 00:31:00,75.7,57.4,-100.00,East,90,0.0,0.0,53,0.00,,,0.00,meteohub,2013-08-18 05:31:00,
2013-08-18 00:32:00,75.7,57.4,-100.00,East,90,0.0,0.0,53,0.00,,,0.00,meteohub,2013-08-18 05:32:00,
2013-08-18 00:33:00,75.7,57.4,-100.00,East,90,0.0,0.0,53,0.00,,,0.00,meteohub,2013-08-18 05:33:00,
2013-08-18 00:37:00,75.6,57.2,-100.00,East,90,0.0,0.0,53,0.00,,,0.00,meteohub,2013-08-18 05:37:00,
2013-08-18 00:39:00,75.4,57.0,-100.00,East,90,0.0,0.0,53,0.00,,,0.00,meteohub,2013-08-18 05:39:00,
2013-08-18 00:41:00,75.4,57.0,-100.00,East,90,0.0,0.0,53,0.00,,,0.00,meteohub,2013-08-18 05:41:00,
2013-08-18 00:43:00,75.4,57.0,-100.00,East,90,0.0,0.0,53,0.00,,,0.00,meteohub,2013-08-18 05:43:00,
2013-08-18 00:47:00,75.2,57.4,-100.00,East,90,0.0,0.0,54,0.00,,,0.00,meteohub,2013-08-18 05:47:00,
2013-08-18 00:52:00,75.0,57.2,-100.00,East,90,0.0,0.0,54,0.00,,,0.00,meteohub,2013-08-18 05:52:00,
2013-08-18 00:54:00,75.0,57.2,-100.00,East,90,0.0,0.0,54,0.00,,,0.00,meteohub,2013-08-18 05:54:00,
2013-08-18 01:00:00,74.8,57.0,-100.00,East,90,0.0,0.0,54,0.00,,,0.00,meteohub,2013-08-18 06:00:00,
2013-08-18 01:02:00,74.8,57.0,-100.00,East,90,0.0,0.0,54,0.00,,,0.00,meteohub,2013-08-18 06:02:00,
2013-08-18 01:06:00,74.5,57.2,-100.00,East,90,0.0,0.0,55,0.00,,,0.00,meteohub,2013-08-18 06:06:00,
2013-08-18 01:08:00,74.3,57.0,-100.00,East,90,0.0,0.0,55,0.00,,,0.00,meteohub,2013-08-18 06:08:00,
2013-08-18 01:10:00,74.3,57.0,-100.00,East,90,0.0,0.0,55,0.00,,,0.00,meteohub,2013-08-18 06:10:00,
2013-08-18 01:14:00,74.1,57.4,-100.00,East,90,0.0,0.0,56,0.00,,,0.00,meteohub,2013-08-18 06:14:00,
2013-08-18 01:16:00,74.1,57.4,-100.00,East,90,0.0,0.0,56,0.00,,,0.00,meteohub,2013-08-18 06:16:00,
2013-08-18 01:17:00,74.1,57.4,-100.00,East,90,0.0,0.0,56,0.00,,,0.00,meteohub,2013-08-18 06:17:00,
2013-08-18 01:22:00,73.9,57.2,-100.00,East,90,0.0,0.0,56,0.00,,,0.00,meteohub,2013-08-18 06:22:00,
2013-08-18 01:24:00,73.9,57.2,-100.00,East,90,0.0,0.0,56,0.00,,,0.00,meteohub,2013-08-18 06:24:00,
2013-08-18 01:28:00,73.8,57.6,-100.00,East,90,0.0,0.0,57,0.00,,,0.00,meteohub,2013-08-18 06:28:00,
2013-08-18 01:30:00,73.8,57.6,-100.00,East,90,0.0,0.0,57,0.00,,,0.00,meteohub,2013-08-18 06:30:00,
2013-08-18 01:34:00,73.6,57.4,-100.00,East,90,0.0,0.0,57,0.00,,,0.00,meteohub,2013-08-18 06:34:00,
2013-08-18 01:36:00,73.4,57.2,-100.00,East,90,0.0,0.0,57,0.00,,,0.00,meteohub,2013-08-18 06:36:00,
2013-08-18 01:38:00,73.4,57.2,-100.00,East,90,0.0,0.0,57,0.00,,,0.00,meteohub,2013-08-18 06:38:00,
2013-08-18 01:40:00,73.2,57.0,-100.00,East,90,0.0,0.0,57,0.00,,,0.00,meteohub,2013-08-18 06:40:00,
2013-08-18 01:46:00,73.2,57.0,-100.00,East,90,0.0,0.0,57,0.00,,,0.00,meteohub,2013-08-18 06:46:00,
2013-08-18 01:47:00,73.2,57.0,-100.00,East,90,0.0,0.0,57,0.00,,,0.00,meteohub,2013-08-18 06:47:00,
2013-08-18 01:52:00,73.2,57.6,-100.00,East,90,0.0,0.0,58,0.00,,,0.00,meteohub,2013-08-18 06:52:00,
2013-08-18 01:56:00,73.0,57.4,-100.00,East,90,0.0,0.0,58,0.00,,,0.00,meteohub,2013-08-18 06:56:00,
2013-08-18 01:58:00,73.0,57.4,-100.00,East,90,0.0,0.0,58,0.00,,,0.00,meteohub,2013-08-18 06:58:00,
2013-08-18 02:00:00,73.0,57.4,-100.00,East,90,0.0,0.0,58,0.00,,,0.00,meteohub,2013-08-18 07:00:00,
2013-08-18 02:02:00,73.0,57.4,-100.00,East,90,0.0,0.0,58,0.00,,,0.00,meteohub,2013-08-18 07:02:00,
2013-08-18 02:06:00,72.7,57.6,-100.00,East,90,0.0,0.0,59,0.00,,,0.00,meteohub,2013-08-18 07:06:00,
2013-08-18 02:08:00,72.7,57.6,-100.00,East,90,0.0,0.0,59,0.00,,,0.00,meteohub,2013-08-18 07:08:00,
2013-08-18 02:10:00,72.5,57.4,-100.00,East,90,0.0,0.0,59,0.00,,,0.00,meteohub,2013-08-18 07:10:00,
2013-08-18 02:12:00,72.5,57.4,-100.00,East,90,0.0,0.0,59,0.00,,,0.00,meteohub,2013-08-18 07:12:00,
2013-08-18 02:14:00,72.5,57.4,-100.00,East,90,0.0,0.0,59,0.00,,,0.00,meteohub,2013-08-18 07:14:00,
2013-08-18 02:16:00,72.5,57.4,-100.00,East,90,0.0,0.0,59,0.00,,,0.00,meteohub,2013-08-18 07:16:00,
2013-08-18 02:17:00,72.5,57.4,-100.00,East,90,0.0,0.0,59,0.00,,,0.00,meteohub,2013-08-18 07:17:00,
2013-08-18 02:22:00,72.3,57.2,-100.00,East,90,0.0,0.0,59,0.00,,,0.00,meteohub,2013-08-18 07:22:00,
2013-08-18 02:24:00,72.3,57.2,-100.00,East,90,0.0,0.0,59,0.00,,,0.00,meteohub,2013-08-18 07:24:00,
2013-08-18 02:26:00,72.3,57.2,-100.00,East,90,0.0,0.0,59,0.00,,,0.00,meteohub,2013-08-18 07:26:00,
2013-08-18 02:28:00,72.1,57.6,-100.00,East,90,0.0,0.0,60,0.00,,,0.00,meteohub,2013-08-18 07:28:00,
2013-08-18 02:30:00,72.1,57.6,-100.00,East,90,0.0,0.0,60,0.00,,,0.00,meteohub,2013-08-18 07:30:00,
2013-08-18 02:32:00,72.0,57.4,-100.00,East,90,0.0,0.0,60,0.00,,,0.00,meteohub,2013-08-18 07:32:00,
2013-08-18 02:34:00,72.0,57.4,-100.00,East,90,0.0,0.0,60,0.00,,,0.00,meteohub,2013-08-18 07:34:00,
2013-08-18 02:36:00,72.0,57.4,-100.00,East,90,0.0,0.0,60,0.00,,,0.00,meteohub,2013-08-18 07:36:00,
2013-08-18 02:38:00,72.0,57.4,-100.00,East,90,0.0,0.0,60,0.00,,,0.00,meteohub,2013-08-18 07:38:00,
2013-08-18 02:40:00,71.8,57.2,-100.00,East,90,0.0,0.0,60,0.00,,,0.00,meteohub,2013-08-18 07:40:00,
2013-08-18 02:42:00,71.8,57.6,-100.00,East,90,0.0,0.0,61,0.00,,,0.00,meteohub,2013-08-18 07:42:00,
2013-08-18 02:44:00,71.8,57.6,-100.00,East,90,0.0,0.0,61,0.00,,,0.00,meteohub,2013-08-18 07:44:00,
2013-08-18 02:46:00,71.8,57.6,-100.00,East,90,0.0,0.0,61,0.00,,,0.00,meteohub,2013-08-18 07:46:00,
2013-08-18 02:47:00,71.8,57.6,-100.00,East,90,0.0,0.0,61,0.00,,,0.00,meteohub,2013-08-18 07:47:00,
2013-08-18 02:52:00,71.4,57.2,-100.00,East,90,0.0,0.0,61,0.00,,,0.00,meteohub,2013-08-18 07:52:00,
2013-08-18 02:54:00,71.4,57.2,-100.00,East,90,0.0,0.0,61,0.00,,,0.00,meteohub,2013-08-18 07:54:00,
2013-08-18 02:56:00,71.4,57.2,-100.00,East,90,0.0,0.0,61,0.00,,,0.00,meteohub,2013-08-18 07:56:00,
2013-08-18 02:58:00,71.4,57.2,-100.00,East,90,0.0,0.0,61,0.00,,,0.00,meteohub,2013-08-18 07:58:00,
2013-08-18 03:00:00,71.4,57.2,-100.00,East,90,0.0,0.0,61,0.00,,,0.00,meteohub,2013-08-18 08:00:00,
2013-08-18 03:02:00,71.4,57.2,-100.00,East,90,0.0,0.0,61,0.00,,,0.00,meteohub,2013-08-18 08:02:00,
2013-08-18 03:08:00,71.4,57.2,-100.00,East,90,0.0,0.0,61,0.00,,,0.00,meteohub,2013-08-18 08:08:00,
2013-08-18 03:10:00,71.1,57.4,-100.00,East,90,0.0,0.0,62,0.00,,,0.00,meteohub,2013-08-18 08:10:00,
2013-08-18 03:14:00,70.9,57.2,-100.00,East,90,0.0,0.0,62,0.00,,,0.00,meteohub,2013-08-18 08:14:00,
2013-08-18 03:16:00,70.9,57.2,-100.00,East,90,0.0,0.0,62,0.00,,,0.00,meteohub,2013-08-18 08:16:00,
2013-08-18 03:18:00,70.9,57.2,-100.00,East,90,0.0,0.0,62,0.00,,,0.00,meteohub,2013-08-18 08:18:00,
2013-08-18 03:22:00,70.7,57.0,-100.00,East,90,0.0,0.0,62,0.00,,,0.00,meteohub,2013-08-18 08:22:00,
2013-08-18 03:24:00,70.7,57.6,-100.00,East,90,0.0,0.0,63,0.00,,,0.00,meteohub,2013-08-18 08:24:00,
2013-08-18 03:26:00,70.5,57.4,-100.00,East,90,0.0,0.0,63,0.00,,,0.00,meteohub,2013-08-18 08:26:00,
2013-08-18 03:30:00,70.5,57.4,-100.00,East,90,0.0,0.0,63,0.00,,,0.00,meteohub,2013-08-18 08:30:00,
2013-08-18 03:32:00,70.5,57.4,-100.00,East,90,0.0,0.0,63,0.00,,,0.00,meteohub,2013-08-18 08:32:00,
2013-08-18 03:34:00,70.5,57.4,-100.00,East,90,0.0,0.0,63,0.00,,,0.00,meteohub,2013-08-18 08:34:00,
2013-08-18 03:38:00,70.3,57.2,-100.00,East,90,0.0,0.0,63,0.00,,,0.00,meteohub,2013-08-18 08:38:00,
2013-08-18 03:40:00,70.3,57.2,-100.00,East,90,0.0,0.0,63,0.00,,,0.00,meteohub,2013-08-18 08:40:00,
2013-08-18 03:44:00,70.3,57.6,-100.00,East,90,0.0,0.0,64,0.00,,,0.00,meteohub,2013-08-18 08:44:00,
2013-08-18 03:47:00,70.3,57.6,-100.00,East,90,0.0,0.0,64,0.00,,,0.00,meteohub,2013-08-18 08:47:00,
2013-08-18 03:49:00,70.2,57.4,-100.00,East,90,0.0,0.0,64,0.00,,,0.00,meteohub,2013-08-18 08:49:00,
2013-08-18 03:51:00,70.2,57.4,-100.00,East,90,0.0,0.0,64,0.00,,,0.00,meteohub,2013-08-18 08:51:00,
2013-08-18 03:53:00,70.0,57.2,-100.00,East,90,0.0,0.0,64,0.00,,,0.00,meteohub,2013-08-18 08:53:00,
2013-08-18 03:57:00,70.0,57.2,-100.00,East,90,0.0,0.0,64,0.00,,,0.00,meteohub,2013-08-18 08:57:00,
2013-08-18 03:59:00,69.8,57.0,-100.00,East,90,0.0,0.0,64,0.00,,,0.00,meteohub,2013-08-18 08:59:00,
2013-08-18 04:02:00,69.8,57.0,-100.00,East,90,0.0,0.0,64,0.00,,,0.00,meteohub,2013-08-18 09:02:00,
2013-08-18 04:03:00,69.8,57.0,-100.00,East,90,0.0,0.0,64,0.00,,,0.00,meteohub,2013-08-18 09:03:00,
2013-08-18 04:05:00,69.6,56.8,-100.00,East,90,0.0,0.0,64,0.00,,,0.00,meteohub,2013-08-18 09:05:00,
2013-08-18 04:09:00,69.6,56.8,-100.00,East,90,0.0,0.0,64,0.00,,,0.00,meteohub,2013-08-18 09:09:00,
2013-08-18 04:11:00,69.6,56.8,-100.00,East,90,0.0,0.0,64,0.00,,,0.00,meteohub,2013-08-18 09:11:00,
2013-08-18 04:17:00,69.4,57.2,-100.00,East,90,0.0,0.0,65,0.00,,,0.00,meteohub,2013-08-18 09:17:00,
2013-08-18 04:19:00,69.4,57.2,-100.00,East,90,0.0,0.0,65,0.00,,,0.00,meteohub,2013-08-18 09:19:00,
2013-08-18 04:23:00,69.1,56.8,-100.00,East,90,0.0,0.0,65,0.00,,,0.00,meteohub,2013-08-18 09:23:00,
2013-08-18 04:27:00,69.1,56.8,-100.00,East,90,0.0,0.0,65,0.00,,,0.00,meteohub,2013-08-18 09:27:00,
2013-08-18 04:29:00,69.1,56.8,-100.00,East,90,0.0,0.0,65,0.00,,,0.00,meteohub,2013-08-18 09:29:00,
2013-08-18 04:32:00,68.9,56.7,-100.00,East,90,0.0,0.0,65,0.00,,,0.00,meteohub,2013-08-18 09:32:00,
2013-08-18 04:35:00,68.9,56.7,-100.00,East,90,0.0,0.0,65,0.00,,,0.00,meteohub,2013-08-18 09:35:00,
2013-08-18 04:37:00,68.9,56.7,-100.00,East,90,0.0,0.0,65,0.00,,,0.00,meteohub,2013-08-18 09:37:00,
2013-08-18 04:39:00,68.9,56.7,-100.00,East,90,0.0,0.0,65,0.00,,,0.00,meteohub,2013-08-18 09:39:00,
2013-08-18 04:41:00,68.7,56.5,-100.00,East,90,0.0,0.0,65,0.00,,,0.00,meteohub,2013-08-18 09:41:00,
2013-08-18 04:47:00,68.7,56.5,-100.00,East,90,0.0,0.0,65,0.00,,,0.00,meteohub,2013-08-18 09:47:00,
2013-08-18 04:49:00,68.5,56.7,-100.00,East,90,0.0,0.0,66,0.00,,,0.00,meteohub,2013-08-18 09:49:00,
2013-08-18 04:53:00,68.5,56.7,-100.00,East,90,0.0,0.0,66,0.00,,,0.00,meteohub,2013-08-18 09:53:00,
2013-08-18 04:55:00,68.5,56.7,-100.00,East,90,0.0,0.0,66,0.00,,,0.00,meteohub,2013-08-18 09:55:00,
2013-08-18 04:59:00,68.5,56.7,-100.00,East,90,0.0,0.0,66,0.00,,,0.00,meteohub,2013-08-18 09:59:00,
2013-08-18 05:02:00,68.4,56.5,-100.00,East,90,0.0,0.0,66,0.00,,,0.00,meteohub,2013-08-18 10:02:00,
2013-08-18 05:03:00,68.4,56.5,-100.00,East,90,0.0,0.0,66,0.00,,,0.00,meteohub,2013-08-18 10:03:00,
2013-08-18 05:07:00,68.2,56.3,-100.00,East,90,0.0,0.0,66,0.00,,,0.00,meteohub,2013-08-18 10:07:00,
2013-08-18 05:09:00,68.2,56.3,-100.00,East,90,0.0,0.0,66,0.00,,,0.00,meteohub,2013-08-18 10:09:00,
2013-08-18 05:11:00,68.2,56.3,-100.00,East,90,0.0,0.0,66,0.00,,,0.00,meteohub,2013-08-18 10:11:00,
2013-08-18 05:15:00,68.2,56.3,-100.00,East,90,0.0,0.0,66,0.00,,,0.00,meteohub,2013-08-18 10:15:00,
2013-08-18 05:17:00,68.2,56.3,-100.00,East,90,0.0,0.0,66,0.00,,,0.00,meteohub,2013-08-18 10:17:00,
2013-08-18 05:19:00,68.2,56.3,-100.00,East,90,0.0,0.0,66,0.00,,,0.00,meteohub,2013-08-18 10:19:00,
2013-08-18 05:21:00,68.2,56.3,-100.00,East,90,0.0,0.0,66,0.00,,,0.00,meteohub,2013-08-18 10:21:00,
2013-08-18 05:23:00,68.0,56.3,-100.00,East,90,0.0,0.0,66,0.00,,,0.00,meteohub,2013-08-18 10:23:00,
2013-08-18 05:25:00,67.8,56.1,-100.00,East,90,0.0,0.0,66,0.00,,,0.00,meteohub,2013-08-18 10:25:00,
2013-08-18 05:27:00,67.8,56.1,-100.00,East,90,0.0,0.0,66,0.00,,,0.00,meteohub,2013-08-18 10:27:00,
2013-08-18 05:29:00,67.8,56.5,-100.00,East,90,0.0,0.0,67,0.00,,,0.00,meteohub,2013-08-18 10:29:00,
2013-08-18 05:31:00,67.8,56.5,-100.00,East,90,0.0,0.0,67,0.00,,,0.00,meteohub,2013-08-18 10:31:00,
2013-08-18 05:35:00,67.8,56.5,-100.00,East,90,0.0,0.0,67,0.00,,,0.00,meteohub,2013-08-18 10:35:00,
2013-08-18 05:37:00,67.8,56.5,-100.00,East,90,0.0,0.0,67,0.00,,,0.00,meteohub,2013-08-18 10:37:00,
2013-08-18 05:39:00,67.8,56.5,-100.00,East,90,0.0,0.0,67,0.00,,,0.00,meteohub,2013-08-18 10:39:00,
2013-08-18 05:41:00,67.6,56.3,-100.00,East,90,0.0,0.0,67,0.00,,,0.00,meteohub,2013-08-18 10:41:00,
2013-08-18 05:47:00,67.6,56.3,-100.00,East,90,0.0,0.0,67,0.00,,,0.00,meteohub,2013-08-18 10:47:00,
2013-08-18 05:49:00,67.6,56.3,-100.00,East,90,0.0,0.0,67,0.00,,,0.00,meteohub,2013-08-18 10:49:00,
2013-08-18 05:51:00,67.6,56.3,-100.00,East,90,0.0,0.0,67,0.00,,,0.00,meteohub,2013-08-18 10:51:00,
2013-08-18 05:53:00,67.6,56.3,-100.00,East,90,0.0,0.0,67,0.00,,,0.00,meteohub,2013-08-18 10:53:00,
2013-08-18 05:57:00,67.3,55.9,-100.00,East,90,0.0,0.0,67,0.00,,,0.00,meteohub,2013-08-18 10:57:00,
2013-08-18 06:01:00,67.3,55.9,-100.00,East,90,0.0,0.0,67,0.00,,,0.00,meteohub,2013-08-18 11:01:00,
2013-08-18 06:02:00,67.3,55.9,-100.00,East,90,0.0,0.0,67,0.00,,,0.00,meteohub,2013-08-18 11:02:00,
2013-08-18 06:03:00,67.3,55.9,-100.00,East,90,0.0,0.0,67,0.00,,,0.00,meteohub,2013-08-18 11:03:00,
2013-08-18 06:07:00,67.3,55.9,-100.00,East,90,0.0,0.0,67,0.00,,,0.00,meteohub,2013-08-18 11:07:00,
2013-08-18 06:11:00,67.3,55.9,-100.00,East,90,0.0,0.0,67,0.00,,,0.00,meteohub,2013-08-18 11:11:00,
2013-08-18 06:15:00,67.3,55.9,-100.00,East,90,0.0,0.0,67,0.00,,,0.00,meteohub,2013-08-18 11:15:00,
2013-08-18 06:17:00,67.3,55.9,-100.00,East,90,0.0,0.0,67,0.00,,,0.00,meteohub,2013-08-18 11:17:00,
2013-08-18 06:21:00,67.3,55.9,-100.00,East,90,0.0,0.0,67,0.00,,,0.00,meteohub,2013-08-18 11:21:00,
2013-08-18 06:23:00,67.1,56.1,-100.00,East,90,0.0,0.0,68,0.00,,,0.00,meteohub,2013-08-18 11:23:00,
2013-08-18 06:29:00,66.9,55.9,-100.00,East,90,0.0,0.0,68,0.00,,,0.00,meteohub,2013-08-18 11:29:00,
2013-08-18 06:31:00,67.1,56.1,-100.00,East,90,0.0,0.0,68,0.00,,,0.00,meteohub,2013-08-18 11:31:00,
2013-08-18 06:32:00,67.1,56.1,-100.00,East,90,0.0,0.0,68,0.00,,,0.00,meteohub,2013-08-18 11:32:00,
2013-08-18 06:37:00,66.9,55.9,-100.00,East,90,0.0,0.0,68,0.00,,,0.00,meteohub,2013-08-18 11:37:00,
2013-08-18 06:40:00,66.7,55.8,-100.00,East,90,0.0,0.0,68,0.00,,,0.00,meteohub,2013-08-18 11:40:00,
2013-08-18 06:42:00,66.7,55.8,-100.00,East,90,0.0,0.0,68,0.00,,,0.00,meteohub,2013-08-18 11:42:00,
2013-08-18 06:44:00,66.7,55.8,-100.00,East,90,0.0,0.0,68,0.00,,,0.00,meteohub,2013-08-18 11:44:00,
2013-08-18 06:46:00,66.7,55.8,-100.00,East,90,0.0,0.0,68,0.00,,,0.00,meteohub,2013-08-18 11:46:00,
2013-08-18 06:47:00,66.7,55.8,-100.00,East,90,0.0,0.0,68,0.00,,,0.00,meteohub,2013-08-18 11:47:00,
2013-08-18 06:48:00,66.7,55.8,-100.00,East,90,0.0,0.0,68,0.00,,,0.00,meteohub,2013-08-18 11:48:00,
2013-08-18 06:52:00,66.6,55.6,-100.00,East,90,0.0,0.0,68,0.00,,,0.00,meteohub,2013-08-18 11:52:00,
2013-08-18 06:54:00,66.7,55.8,-100.00,East,90,0.0,0.0,68,0.00,,,0.00,meteohub,2013-08-18 11:54:00,
2013-08-18 06:56:00,66.6,55.6,-100.00,East,90,0.0,0.0,68,0.00,,,0.00,meteohub,2013-08-18 11:56:00,
2013-08-18 06:58:00,66.4,55.6,-100.00,East,90,0.0,0.0,68,0.00,,,0.00,meteohub,2013-08-18 11:58:00,
2013-08-18 07:00:00,66.4,55.6,-100.00,East,90,0.0,0.0,68,0.00,,,0.00,meteohub,2013-08-18 12:00:00,
2013-08-18 07:02:00,66.4,55.6,-100.00,East,90,0.0,0.0,68,0.00,,,0.00,meteohub,2013-08-18 12:02:00,
2013-08-18 07:08:00,66.0,55.6,-100.00,East,90,0.0,0.0,69,0.00,,,0.00,meteohub,2013-08-18 12:08:00,
2013-08-18 07:10:00,66.0,55.6,-100.00,East,90,0.0,0.0,69,0.00,,,0.00,meteohub,2013-08-18 12:10:00,
2013-08-18 07:14:00,66.0,55.6,-100.00,East,90,0.0,0.0,69,0.00,,,0.00,meteohub,2013-08-18 12:14:00,
2013-08-18 07:16:00,66.0,55.6,-100.00,East,90,0.0,0.0,69,0.00,,,0.00,meteohub,2013-08-18 12:16:00,
2013-08-18 07:18:00,66.0,55.6,-100.00,East,90,0.0,0.0,69,0.00,,,0.00,meteohub,2013-08-18 12:18:00,
2013-08-18 07:20:00,66.0,55.6,-100.00,East,90,0.0,0.0,69,0.00,,,0.00,meteohub,2013-08-18 12:20:00,
2013-08-18 07:24:00,66.0,55.6,-100.00,East,90,0.0,0.0,69,0.00,,,0.00,meteohub,2013-08-18 12:24:00,
2013-08-18 07:28:00,66.0,55.6,-100.00,East,90,0.0,0.0,69,0.00,,,0.00,meteohub,2013-08-18 12:28:00,
2013-08-18 07:30:00,66.0,55.9,-100.00,East,90,0.0,0.0,70,0.00,,,0.00,meteohub,2013-08-18 12:30:00,
2013-08-18 07:32:00,66.0,55.9,-100.00,East,90,0.0,0.0,70,0.00,,,0.00,meteohub,2013-08-18 12:32:00,
2013-08-18 07:36:00,66.0,55.6,-100.00,East,90,0.0,0.0,69,0.00,,,0.00,meteohub,2013-08-18 12:36:00,
2013-08-18 07:38:00,66.0,55.6,-100.00,East,90,0.0,0.0,69,0.00,,,0.00,meteohub,2013-08-18 12:38:00,
2013-08-18 07:42:00,66.0,55.6,-100.00,East,90,0.0,0.0,69,0.00,,,0.00,meteohub,2013-08-18 12:42:00,
2013-08-18 07:44:00,66.2,55.8,-100.00,East,90,0.0,0.0,69,0.00,,,0.00,meteohub,2013-08-18 12:44:00,
2013-08-18 07:46:00,66.4,55.9,-100.00,East,90,0.0,0.0,69,0.00,,,0.00,meteohub,2013-08-18 12:46:00,
2013-08-18 07:47:00,66.4,55.9,-100.00,East,90,0.0,0.0,69,0.00,,,0.00,meteohub,2013-08-18 12:47:00,
2013-08-18 07:48:00,66.4,55.9,-100.00,East,90,0.0,0.0,69,0.00,,,0.00,meteohub,2013-08-18 12:48:00,
2013-08-18 07:52:00,66.4,55.9,-100.00,East,90,0.0,0.0,69,0.00,,,0.00,meteohub,2013-08-18 12:52:00,
2013-08-18 07:56:00,66.4,55.9,-100.00,East,90,0.0,0.0,69,0.00,,,0.00,meteohub,2013-08-18 12:56:00,
2013-08-18 08:02:00,66.7,56.3,-100.00,ESE,113,0.0,0.0,69,0.00,,,0.00,meteohub,2013-08-18 13:02:00,
2013-08-18 08:04:00,66.7,56.3,-100.00,ESE,113,0.0,0.0,69,0.00,,,0.00,meteohub,2013-08-18 13:04:00,
2013-08-18 08:06:00,66.9,56.5,-100.00,ESE,113,0.0,0.0,69,0.00,,,0.00,meteohub,2013-08-18 13:06:00,
2013-08-18 08:08:00,66.9,56.5,-100.00,ESE,113,0.0,0.0,69,0.00,,,0.00,meteohub,2013-08-18 13:08:00,
2013-08-18 08:10:00,67.1,56.1,-100.00,ESE,113,0.0,0.0,68,0.00,,,0.00,meteohub,2013-08-18 13:10:00,
2013-08-18 08:14:00,67.3,56.3,-100.00,ESE,113,0.0,0.0,68,0.00,,,0.00,meteohub,2013-08-18 13:14:00,
2013-08-18 08:16:00,67.6,57.0,-100.00,ESE,113,0.0,0.0,69,0.00,,,0.00,meteohub,2013-08-18 13:16:00,
2013-08-18 08:17:00,67.6,57.0,-100.00,ESE,113,0.0,0.0,69,0.00,,,0.00,meteohub,2013-08-18 13:17:00,
2013-08-18 08:22:00,68.2,57.2,-100.00,ESE,113,0.0,0.0,68,0.00,,,0.00,meteohub,2013-08-18 13:22:00,
2013-08-18 08:24:00,68.2,57.2,-100.00,ESE,113,0.0,0.0,68,0.00,,,0.00,meteohub,2013-08-18 13:24:00,
2013-08-18 08:26:00,68.4,57.4,-100.00,NE,45,0.0,0.0,68,0.00,,,0.00,meteohub,2013-08-18 13:26:00,
2013-08-18 08:28:00,68.4,57.4,-100.00,NE,45,0.0,0.0,68,0.00,,,0.00,meteohub,2013-08-18 13:28:00,
2013-08-18 08:30:00,68.5,57.6,-100.00,NE,45,0.0,0.0,68,0.00,,,0.00,meteohub,2013-08-18 13:30:00,
2013-08-18 08:32:00,68.7,57.7,-100.00,NE,45,0.0,0.0,68,0.00,,,0.00,meteohub,2013-08-18 13:32:00,
2013-08-18 08:36:00,69.1,58.1,-100.00,NNE,23,0.0,0.0,68,0.00,,,0.00,meteohub,2013-08-18 13:36:00,
2013-08-18 08:40:00,69.4,58.5,-100.00,NNE,23,0.0,0.0,68,0.00,,,0.00,meteohub,2013-08-18 13:40:00,
2013-08-18 08:42:00,69.6,58.1,-100.00,NNE,23,0.0,0.0,67,0.00,,,0.00,meteohub,2013-08-18 13:42:00,
2013-08-18 08:47:00,70.0,58.5,-100.00,NNE,23,0.0,0.0,67,0.00,,,0.00,meteohub,2013-08-18 13:47:00,
2013-08-18 08:52:00,70.3,58.8,-100.00,NNE,23,0.0,0.0,67,0.00,,,0.00,meteohub,2013-08-18 13:52:00,
2013-08-18 08:54:00,70.5,59.0,-100.00,NNE,23,0.0,0.0,67,0.00,,,0.00,meteohub,2013-08-18 13:54:00,
2013-08-18 08:56:00,70.7,58.8,-100.00,NNE,23,0.0,0.0,66,0.00,,,0.00,meteohub,2013-08-18 13:56:00,
2013-08-18 08:58:00,70.9,59.0,-100.00,NNE,23,0.0,0.0,66,0.00,,,0.00,meteohub,2013-08-18 13:58:00,
2013-08-18 09:00:00,70.9,59.0,-100.00,NNE,23,0.0,0.0,66,0.00,,,0.00,meteohub,2013-08-18 14:00:00,
2013-08-18 09:02:00,71.2,59.4,-100.00,NNE,23,0.0,0.0,66,0.00,,,0.00,meteohub,2013-08-18 14:02:00,
2013-08-18 09:04:00,71.4,59.0,-100.00,NNE,23,0.0,0.0,65,0.00,,,0.00,meteohub,2013-08-18 14:04:00,
2013-08-18 09:06:00,71.4,59.0,-100.00,NNE,23,0.0,0.0,65,0.00,,,0.00,meteohub,2013-08-18 14:06:00,
2013-08-18 09:10:00,72.1,59.4,-100.00,SSE,158,0.0,0.0,64,0.00,,,0.00,meteohub,2013-08-18 14:10:00,
2013-08-18 09:12:00,72.1,58.8,-100.00,SSE,158,0.0,0.0,63,0.00,,,0.00,meteohub,2013-08-18 14:12:00,
2013-08-18 09:14:00,72.5,59.2,-100.00,South,180,0.0,0.0,63,0.00,,,0.00,meteohub,2013-08-18 14:14:00,
2013-08-18 09:16:00,72.7,58.8,-100.00,South,180,0.0,0.0,62,0.00,,,0.00,meteohub,2013-08-18 14:16:00,
2013-08-18 09:20:00,73.2,59.0,-100.00,SE,135,0.0,0.0,61,0.00,,,0.00,meteohub,2013-08-18 14:20:00,
2013-08-18 09:22:00,73.4,59.2,-100.00,NW,315,0.0,0.0,61,0.00,,,0.00,meteohub,2013-08-18 14:22:00,
2013-08-18 09:28:00,74.1,59.7,-100.00,NNE,23,0.0,0.0,61,0.00,,,0.00,meteohub,2013-08-18 14:28:00,
2013-08-18 09:31:00,74.3,59.9,-100.00,NNE,23,0.0,0.0,61,0.00,,,0.00,meteohub,2013-08-18 14:31:00,
2013-08-18 09:32:00,74.3,59.9,-100.00,NNE,23,0.0,0.0,61,0.00,,,0.00,meteohub,2013-08-18 14:32:00,
2013-08-18 09:35:00,74.8,60.1,-100.00,NE,45,0.0,0.0,60,0.00,,,0.00,meteohub,2013-08-18 14:35:00,
2013-08-18 09:37:00,74.8,60.1,-100.00,NE,45,0.0,0.0,60,0.00,,,0.00,meteohub,2013-08-18 14:37:00,
2013-08-18 09:39:00,75.2,60.4,-100.00,NE,45,0.0,0.0,60,0.00,,,0.00,meteohub,2013-08-18 14:39:00,
2013-08-18 09:43:00,75.7,60.4,-100.00,SSW,203,0.0,0.0,59,0.00,,,0.00,meteohub,2013-08-18 14:43:00,
2013-08-18 09:45:00,75.9,60.6,-100.00,ESE,113,2.0,0.0,59,0.00,,,0.00,meteohub,2013-08-18 14:45:00,
2013-08-18 09:47:00,76.1,60.8,-100.00,East,90,0.0,2.0,59,0.00,,,0.00,meteohub,2013-08-18 14:47:00,
2013-08-18 09:53:00,76.8,61.3,-100.00,WNW,293,0.0,2.0,59,0.00,,,0.00,meteohub,2013-08-18 14:53:00,
2013-08-18 09:55:00,77.0,61.5,-100.00,South,180,0.0,2.0,59,0.00,,,0.00,meteohub,2013-08-18 14:55:00,
2013-08-18 09:57:00,77.2,62.2,-100.00,SE,135,1.0,2.0,60,0.00,,,0.00,meteohub,2013-08-18 14:57:00,
2013-08-18 09:59:00,77.5,62.1,-100.00,NW,315,0.0,2.0,59,0.00,,,0.00,meteohub,2013-08-18 14:59:00,
2013-08-18 10:03:00,78.1,63.1,-100.00,South,180,2.0,2.0,60,0.00,,,0.00,meteohub,2013-08-18 15:03:00,
2013-08-18 10:05:00,78.3,62.8,-100.00,South,180,1.0,1.0,59,0.00,,,0.00,meteohub,2013-08-18 15:05:00,
2013-08-18 10:09:00,78.6,63.1,-100.00,West,270,0.0,2.0,59,0.00,,,0.00,meteohub,2013-08-18 15:09:00,
2013-08-18 10:11:00,78.6,63.1,-100.00,West,270,0.0,2.0,59,0.00,,,0.00,meteohub,2013-08-18 15:11:00,
2013-08-18 10:13:00,79.0,63.5,-100.00,NNE,23,0.0,2.0,59,0.00,,,0.00,meteohub,2013-08-18 15:13:00,
2013-08-18 10:15:00,79.2,63.7,-100.00,SE,135,0.0,2.0,59,0.00,,,0.00,meteohub,2013-08-18 15:15:00,
2013-08-18 10:17:00,79.3,63.7,-100.00,East,90,0.0,2.0,59,0.00,,,0.00,meteohub,2013-08-18 15:17:00,
2013-08-18 10:19:00,79.5,63.5,-100.00,SSW,203,0.0,2.0,58,0.00,,,0.00,meteohub,2013-08-18 15:19:00,
2013-08-18 10:21:00,79.7,63.7,-100.00,NE,45,0.0,1.0,58,0.00,,,0.00,meteohub,2013-08-18 15:21:00,
2013-08-18 10:23:00,79.9,63.9,-100.00,South,180,5.0,5.0,58,0.00,,,0.00,meteohub,2013-08-18 15:23:00,
2013-08-18 10:27:00,80.4,63.9,-100.00,ESE,113,0.0,5.0,57,0.00,,,0.00,meteohub,2013-08-18 15:27:00,
2013-08-18 10:29:00,80.4,63.9,-100.00,WSW,248,1.0,5.0,57,0.00,,,0.00,meteohub,2013-08-18 15:29:00,
2013-08-18 10:31:00,80.4,63.9,-100.00,SE,135,0.0,5.0,57,0.00,,,0.00,meteohub,2013-08-18 15:31:00,
2013-08-18 10:33:00,80.8,64.0,-100.00,South,180,1.0,5.0,57,0.00,,,0.00,meteohub,2013-08-18 15:33:00,
2013-08-18 10:37:00,81.1,64.0,-100.00,West,270,0.0,5.0,56,0.00,,,0.00,meteohub,2013-08-18 15:37:00,
2013-08-18 10:39:00,81.1,64.0,-100.00,West,270,0.0,5.0,56,0.00,,,0.00,meteohub,2013-08-18 15:39:00,
2013-08-18 10:41:00,81.3,64.0,-100.00,WNW,293,2.0,2.0,56,0.00,,,0.00,meteohub,2013-08-18 15:41:00,
2013-08-18 10:43:00,81.5,64.2,-100.00,WNW,293,0.0,1.0,56,0.00,,,0.00,meteohub,2013-08-18 15:43:00,
2013-08-18 10:45:00,81.7,63.9,-100.00,SSW,203,0.0,2.0,55,0.00,,,0.00,meteohub,2013-08-18 15:45:00,
2013-08-18 10:47:00,81.9,64.0,-100.00,NW,315,0.0,2.0,55,0.00,,,0.00,meteohub,2013-08-18 15:47:00,
2013-08-18 10:49:00,82.0,63.7,-100.00,North,0,1.0,2.0,54,0.00,,,0.00,meteohub,2013-08-18 15:49:00,
2013-08-18 10:51:00,82.2,63.9,-100.00,ESE,113,2.0,2.0,54,0.00,,,0.00,meteohub,2013-08-18 15:51:00,
2013-08-18 10:55:00,82.4,63.0,-100.00,SE,135,2.0,2.0,52,0.00,,,0.00,meteohub,2013-08-18 15:55:00,
2013-08-18 10:59:00,82.8,62.8,-100.00,ESE,113,0.0,2.0,51,0.00,,,0.00,meteohub,2013-08-18 15:59:00,
2013-08-18 11:01:00,82.8,62.8,-100.00,SE,135,0.0,2.0,51,0.00,,,0.00,meteohub,2013-08-18 16:01:00,
2013-08-18 11:02:00,82.8,62.8,-100.00,SE,135,0.0,2.0,51,0.00,,,0.00,meteohub,2013-08-18 16:02:00,
2013-08-18 11:05:00,82.9,63.5,-100.00,SE,135,0.0,2.0,52,0.00,,,0.00,meteohub,2013-08-18 16:05:00,
2013-08-18 11:09:00,83.3,62.8,-100.00,SSE,158,0.0,2.0,50,0.00,,,0.00,meteohub,2013-08-18 16:09:00,
2013-08-18 11:11:00,83.3,62.8,-100.00,SSW,203,2.0,2.0,50,0.00,,,0.00,meteohub,2013-08-18 16:11:00,
2013-08-18 11:15:00,83.5,63.5,-100.00,NNE,23,1.0,2.0,51,0.00,,,0.00,meteohub,2013-08-18 16:15:00,
2013-08-18 11:17:00,83.8,63.1,-100.00,NE,45,2.0,2.0,50,0.00,,,0.00,meteohub,2013-08-18 16:17:00,
2013-08-18 11:21:00,83.8,62.1,-100.00,ENE,68,1.0,2.0,48,0.00,,,0.00,meteohub,2013-08-18 16:21:00,
2013-08-18 11:23:00,83.8,62.1,-100.00,NE,45,0.0,2.0,48,0.00,,,0.00,meteohub,2013-08-18 16:23:00,
2013-08-18 11:25:00,84.0,62.2,-100.00,NNE,23,0.0,2.0,48,0.00,,,0.00,meteohub,2013-08-18 16:25:00,
2013-08-18 11:27:00,84.0,62.2,-100.00,WNW,293,0.0,2.0,48,0.00,,,0.00,meteohub,2013-08-18 16:27:00,
2013-08-18 11:31:00,84.4,61.9,-100.00,NNE,23,2.0,2.0,47,0.00,,,0.00,meteohub,2013-08-18 16:31:00,
2013-08-18 11:32:00,84.4,61.9,-100.00,NNE,23,2.0,2.0,47,0.00,,,0.00,meteohub,2013-08-18 16:32:00,
2013-08-18 11:37:00,84.7,61.7,-100.00,North,0,2.0,2.0,46,0.00,,,0.00,meteohub,2013-08-18 16:37:00,
2013-08-18 11:39:00,84.7,61.7,-100.00,NE,45,0.0,2.0,46,0.00,,,0.00,meteohub,2013-08-18 16:39:00,
2013-08-18 11:43:00,84.9,61.9,-100.00,NNE,23,3.0,3.0,46,0.00,,,0.00,meteohub,2013-08-18 16:43:00,
2013-08-18 11:45:00,84.9,61.2,-100.00,ESE,113,2.0,3.0,45,0.00,,,0.00,meteohub,2013-08-18 16:45:00,
2013-08-18 11:47:00,84.9,61.2,-100.00,ESE,113,2.0,3.0,45,0.00,,,0.00,meteohub,2013-08-18 16:47:00,
2013-08-18 11:51:00,85.1,61.3,-100.00,SSW,203,0.0,3.0,45,0.00,,,0.00,meteohub,2013-08-18 16:51:00,
2013-08-18 11:53:00,85.5,62.2,-100.00,North,0,1.0,3.0,46,0.00,,,0.00,meteohub,2013-08-18 16:53:00,
2013-08-18 11:55:00,85.6,62.4,-100.00,NNW,338,0.0,3.0,46,0.00,,,0.00,meteohub,2013-08-18 16:55:00,
2013-08-18 11:57:00,85.8,62.1,-100.00,NNE,23,2.0,3.0,45,0.00,,,0.00,meteohub,2013-08-18 16:57:00,
2013-08-18 12:01:00,85.8,61.3,-100.00,South,180,3.0,3.0,44,0.00,,,0.00,meteohub,2013-08-18 17:01:00,
2013-08-18 12:02:00,85.8,61.3,-100.00,South,180,3.0,3.0,44,0.00,,,0.00,meteohub,2013-08-18 17:02:00,
2013-08-18 12:06:00,86.2,61.0,-100.00,ESE,113,2.0,3.0,43,0.00,,,0.00,meteohub,2013-08-18 17:06:00,
2013-08-18 12:08:00,86.4,61.2,-100.00,South,180,0.0,3.0,43,0.00,,,0.00,meteohub,2013-08-18 17:08:00,
2013-08-18 12:10:00,86.5,61.3,-100.00,SSE,158,1.0,3.0,43,0.00,,,0.00,meteohub,2013-08-18 17:10:00,
2013-08-18 12:12:00,86.5,61.3,-100.00,ESE,113,0.0,3.0,43,0.00,,,0.00,meteohub,2013-08-18 17:12:00,
2013-08-18 12:14:00,86.9,61.0,-100.00,South,180,0.0,3.0,42,0.00,,,0.00,meteohub,2013-08-18 17:14:00,
2013-08-18 12:16:00,87.1,61.2,-100.00,SSE,158,0.0,3.0,42,0.00,,,0.00,meteohub,2013-08-18 17:16:00,
2013-08-18 12:17:00,87.1,61.2,-100.00,SSE,158,0.0,3.0,42,0.00,,,0.00,meteohub,2013-08-18 17:17:00,
2013-08-18 12:22:00,87.6,61.7,-100.00,NNE,23,0.0,2.0,42,0.00,,,0.00,meteohub,2013-08-18 17:22:00,
2013-08-18 12:24:00,87.6,61.7,-100.00,East,90,0.0,2.0,42,0.00,,,0.00,meteohub,2013-08-18 17:24:00,
2013-08-18 12:26:00,87.6,61.7,-100.00,NNE,23,1.0,1.0,42,0.00,,,0.00,meteohub,2013-08-18 17:26:00,
2013-08-18 12:30:00,88.2,62.2,-100.00,NNE,23,2.0,2.0,42,0.00,,,0.00,meteohub,2013-08-18 17:30:00,
2013-08-18 12:32:00,88.3,61.7,-100.00,NNE,23,2.0,2.0,41,0.00,,,0.00,meteohub,2013-08-18 17:32:00,
2013-08-18 12:34:00,88.3,61.7,-100.00,North,0,0.0,1.0,41,0.00,,,0.00,meteohub,2013-08-18 17:34:00,
2013-08-18 12:36:00,88.3,61.0,-100.00,North,0,2.0,2.0,40,0.00,,,0.00,meteohub,2013-08-18 17:36:00,
2013-08-18 12:38:00,88.3,61.0,-100.00,NNE,23,2.0,2.0,40,0.00,,,0.00,meteohub,2013-08-18 17:38:00,
2013-08-18 12:40:00,88.5,61.2,-100.00,NE,45,1.0,2.0,40,0.00,,,0.00,meteohub,2013-08-18 17:40:00,
2013-08-18 12:44:00,88.9,61.5,-100.00,NNE,23,0.0,2.0,40,0.00,,,0.00,meteohub,2013-08-18 17:44:00,
2013-08-18 12:47:00,89.2,61.7,-100.00,NNE,23,1.0,2.0,40,0.00,,,0.00,meteohub,2013-08-18 17:47:00,
2013-08-18 12:52:00,89.8,61.5,-100.00,ESE,113,0.0,2.0,39,0.00,,,0.00,meteohub,2013-08-18 17:52:00,
2013-08-18 12:54:00,90.0,61.7,-100.00,NNE,23,4.0,4.0,39,0.00,,,0.00,meteohub,2013-08-18 17:54:00,
2013-08-18 12:56:00,90.1,61.9,-100.00,West,270,2.0,2.0,39,0.00,,,0.00,meteohub,2013-08-18 17:56:00,
2013-08-18 12:58:00,90.1,61.9,-100.00,West,270,2.0,2.0,39,0.00,,,0.00,meteohub,2013-08-18 17:58:00,
2013-08-18 13:00:00,90.3,61.3,-100.00,NNE,23,1.0,4.0,38,0.00,,,0.00,meteohub,2013-08-18 18:00:00,
2013-08-18 13:02:00,90.3,62.1,-100.00,NNE,23,2.0,4.0,39,0.00,,,0.00,meteohub,2013-08-18 18:02:00,
2013-08-18 13:04:00,90.3,60.4,-100.00,SSE,158,0.0,4.0,37,0.00,,,0.00,meteohub,2013-08-18 18:04:00,
2013-08-18 13:08:00,90.7,60.8,-100.00,NNE,23,1.0,4.0,37,0.00,,,0.00,meteohub,2013-08-18 18:08:00,
2013-08-18 13:10:00,91.0,61.2,-100.00,North,0,2.0,4.0,37,0.00,,,0.00,meteohub,2013-08-18 18:10:00,
2013-08-18 13:14:00,91.2,60.6,-100.00,NE,45,3.0,4.0,36,0.00,,,0.00,meteohub,2013-08-18 18:14:00,
2013-08-18 13:17:00,91.4,62.2,-100.00,NW,315,0.0,2.0,38,0.00,,,0.00,meteohub,2013-08-18 18:17:00,
2013-08-18 13:18:00,91.8,61.7,-100.00,NNE,23,2.0,2.0,37,0.00,,,0.00,meteohub,2013-08-18 18:18:00,
2013-08-18 13:24:00,91.9,61.2,-100.00,ENE,68,1.0,3.0,36,0.00,,,0.00,meteohub,2013-08-18 18:24:00,
2013-08-18 13:26:00,92.1,61.3,-100.00,NNE,23,2.0,3.0,36,0.00,,,0.00,meteohub,2013-08-18 18:26:00,
2013-08-18 13:28:00,92.1,60.4,-100.00,SE,135,0.0,3.0,35,0.00,,,0.00,meteohub,2013-08-18 18:28:00,
2013-08-18 13:30:00,92.1,60.4,-100.00,SE,135,0.0,2.0,35,0.00,,,0.00,meteohub,2013-08-18 18:30:00,
2013-08-18 13:34:00,92.1,60.4,-100.00,ESE,113,0.0,2.0,35,0.00,,,0.00,meteohub,2013-08-18 18:34:00,
2013-08-18 13:36:00,92.3,60.6,-100.00,ENE,68,0.0,2.0,35,0.00,,,0.00,meteohub,2013-08-18 18:36:00,
2013-08-18 13:40:00,92.5,60.8,-100.00,NNE,23,5.0,5.0,35,0.00,,,0.00,meteohub,2013-08-18 18:40:00,
2013-08-18 13:42:00,92.5,60.8,-100.00,SSW,203,2.0,2.0,35,0.00,,,0.00,meteohub,2013-08-18 18:42:00,
2013-08-18 13:44:00,92.8,61.2,-100.00,NE,45,0.0,2.0,35,0.00,,,0.00,meteohub,2013-08-18 18:44:00,
2013-08-18 13:48:00,92.8,60.3,-100.00,NE,45,1.0,5.0,34,0.00,,,0.00,meteohub,2013-08-18 18:48:00,
2013-08-18 13:50:00,92.8,61.2,-100.00,ESE,113,1.0,5.0,35,0.00,,,0.00,meteohub,2013-08-18 18:50:00,
2013-08-18 13:52:00,92.8,60.3,-100.00,South,180,1.0,5.0,34,0.00,,,0.00,meteohub,2013-08-18 18:52:00,
2013-08-18 13:56:00,92.8,60.3,-100.00,NNE,23,1.0,5.0,34,0.00,,,0.00,meteohub,2013-08-18 18:56:00,
2013-08-18 14:00:00,93.0,59.7,-100.00,SSW,203,0.0,1.0,33,0.00,,,0.00,meteohub,2013-08-18 19:00:00,
2013-08-18 14:02:00,93.0,59.7,-100.00,SSW,203,0.0,1.0,33,0.00,,,0.00,meteohub,2013-08-18 19:02:00,
2013-08-18 14:04:00,93.0,59.7,-100.00,South,180,4.0,4.0,33,0.00,,,0.00,meteohub,2013-08-18 19:04:00,
2013-08-18 14:08:00,93.0,59.7,-100.00,East,90,2.0,2.0,33,0.00,,,0.00,meteohub,2013-08-18 19:08:00,
2013-08-18 14:10:00,93.0,59.7,-100.00,NE,45,2.0,4.0,33,0.00,,,0.00,meteohub,2013-08-18 19:10:00,
2013-08-18 14:12:00,93.4,59.9,-100.00,North,0,3.0,4.0,33,0.00,,,0.00,meteohub,2013-08-18 19:12:00,
2013-08-18 14:14:00,93.4,59.9,-100.00,NNE,23,4.0,4.0,33,0.00,,,0.00,meteohub,2013-08-18 19:14:00,
2013-08-18 14:16:00,93.4,59.9,-100.00,North,0,11.0,11.0,33,0.00,,,0.00,meteohub,2013-08-18 19:16:00,
2013-08-18 14:18:00,93.4,59.2,-100.00,NNE,23,2.0,4.0,32,0.00,,,0.00,meteohub,2013-08-18 19:18:00,
2013-08-18 14:22:00,93.4,59.9,-100.00,NE,45,0.0,11.0,33,0.00,,,0.00,meteohub,2013-08-18 19:22:00,
2013-08-18 14:24:00,93.6,59.2,-100.00,North,0,3.0,11.0,32,0.00,,,0.00,meteohub,2013-08-18 19:24:00,
2013-08-18 14:26:00,93.6,60.1,-100.00,NE,45,2.0,11.0,33,0.00,,,0.00,meteohub,2013-08-18 19:26:00,
2013-08-18 14:30:00,93.7,60.3,-100.00,ENE,68,2.0,11.0,33,0.00,,,0.00,meteohub,2013-08-18 19:30:00,
2013-08-18 14:32:00,93.7,59.4,-100.00,ESE,113,1.0,11.0,32,0.00,,,0.00,meteohub,2013-08-18 19:32:00,
2013-08-18 14:34:00,93.7,58.5,-100.00,ESE,113,2.0,11.0,31,0.00,,,0.00,meteohub,2013-08-18 19:34:00,
2013-08-18 14:38:00,93.4,59.2,-100.00,SE,135,2.0,3.0,32,0.00,,,0.00,meteohub,2013-08-18 19:38:00,
2013-08-18 14:41:00,93.4,59.2,-100.00,SE,135,2.0,4.0,32,0.00,,,0.00,meteohub,2013-08-18 19:41:00,
2013-08-18 14:43:00,93.4,59.2,-100.00,NE,45,1.0,4.0,32,0.00,,,0.00,meteohub,2013-08-18 19:43:00,
2013-08-18 14:47:00,93.6,59.2,-100.00,East,90,1.0,4.0,32,0.00,,,0.00,meteohub,2013-08-18 19:47:00,
2013-08-18 14:49:00,93.6,59.2,-100.00,SSE,158,2.0,4.0,32,0.00,,,0.00,meteohub,2013-08-18 19:49:00,
2013-08-18 14:51:00,93.7,59.4,-100.00,NE,45,2.0,4.0,32,0.00,,,0.00,meteohub,2013-08-18 19:51:00,
2013-08-18 14:53:00,93.9,60.4,-100.00,SSE,158,1.0,4.0,33,0.00,,,0.00,meteohub,2013-08-18 19:53:00,
2013-08-18 14:55:00,94.3,59.9,-100.00,South,180,2.0,4.0,32,0.00,,,0.00,meteohub,2013-08-18 19:55:00,
2013-08-18 14:57:00,94.5,60.1,-100.00,East,90,0.0,3.0,32,0.00,,,0.00,meteohub,2013-08-18 19:57:00,
2013-08-18 14:59:00,94.8,60.4,-100.00,SW,225,0.0,3.0,32,0.00,,,0.00,meteohub,2013-08-18 19:59:00,
2013-08-18 15:01:00,95.2,59.7,-100.00,NNW,338,1.0,2.0,31,0.00,,,0.00,meteohub,2013-08-18 20:01:00,
2013-08-18 15:03:00,95.2,59.7,-100.00,North,0,2.0,2.0,31,0.00,,,0.00,meteohub,2013-08-18 20:03:00,
2013-08-18 15:07:00,95.4,59.9,-100.00,ESE,113,3.0,3.0,31,0.00,,,0.00,meteohub,2013-08-18 20:07:00,
2013-08-18 15:11:00,95.4,60.8,-100.00,NW,315,2.0,3.0,32,0.00,,,0.00,meteohub,2013-08-18 20:11:00,
2013-08-18 15:13:00,95.4,60.8,-100.00,NW,315,2.0,3.0,32,0.00,,,0.00,meteohub,2013-08-18 20:13:00,
2013-08-18 15:15:00,95.5,60.1,-100.00,NNE,23,2.0,3.0,31,0.00,,,0.00,meteohub,2013-08-18 20:15:00,
2013-08-18 15:17:00,95.5,60.1,-100.00,NNE,23,2.0,4.0,31,0.00,,,0.00,meteohub,2013-08-18 20:17:00,
2013-08-18 15:21:00,95.5,60.1,-100.00,SSW,203,1.0,4.0,31,0.00,,,0.00,meteohub,2013-08-18 20:21:00,
2013-08-18 15:27:00,95.0,59.5,-100.00,ENE,68,0.0,4.0,31,0.00,,,0.00,meteohub,2013-08-18 20:27:00,
2013-08-18 15:29:00,95.2,59.7,-100.00,SE,135,1.0,4.0,31,0.00,,,0.00,meteohub,2013-08-18 20:29:00,
2013-08-18 15:31:00,95.2,59.7,-100.00,East,90,1.0,2.0,31,0.00,,,0.00,meteohub,2013-08-18 20:31:00,
2013-08-18 15:32:00,95.2,59.7,-100.00,East,90,1.0,2.0,31,0.00,,,0.00,meteohub,2013-08-18 20:32:00,
2013-08-18 15:37:00,95.5,59.2,-100.00,East,90,4.0,4.0,30,0.00,,,0.00,meteohub,2013-08-18 20:37:00,
2013-08-18 15:39:00,95.5,59.2,-100.00,SE,135,0.0,1.0,30,0.00,,,0.00,meteohub,2013-08-18 20:39:00,
2013-08-18 15:41:00,95.5,59.2,-100.00,SSE,158,3.0,4.0,30,0.00,,,0.00,meteohub,2013-08-18 20:41:00,
2013-08-18 15:45:00,95.4,59.0,-100.00,SSE,158,2.0,4.0,30,0.00,,,0.00,meteohub,2013-08-18 20:45:00,
2013-08-18 15:47:00,95.4,59.0,-100.00,NE,45,4.0,4.0,30,0.00,,,0.00,meteohub,2013-08-18 20:47:00,
2013-08-18 15:49:00,95.5,59.2,-100.00,WNW,293,3.0,4.0,30,0.00,,,0.00,meteohub,2013-08-18 20:49:00,
2013-08-18 15:53:00,95.4,59.0,-100.00,SW,225,2.0,4.0,30,0.00,,,0.00,meteohub,2013-08-18 20:53:00,
2013-08-18 15:55:00,95.2,58.8,-100.00,ESE,113,3.0,4.0,30,0.00,,,0.00,meteohub,2013-08-18 20:55:00,
2013-08-18 15:59:00,95.2,58.8,-100.00,NE,45,2.0,4.0,30,0.00,,,0.00,meteohub,2013-08-18 20:59:00,
2013-08-18 16:01:00,95.4,59.0,-100.00,NNE,23,1.0,4.0,30,0.00,,,0.00,meteohub,2013-08-18 21:01:00,
2013-08-18 16:03:00,95.4,59.0,-100.00,NE,45,2.0,4.0,30,0.00,,,0.00,meteohub,2013-08-18 21:03:00,
2013-08-18 16:05:00,95.2,58.8,-100.00,NNE,23,2.0,4.0,30,0.00,,,0.00,meteohub,2013-08-18 21:05:00,
2013-08-18 16:09:00,95.4,59.0,-100.00,South,180,3.0,4.0,30,0.00,,,0.00,meteohub,2013-08-18 21:09:00,
2013-08-18 16:11:00,95.4,59.0,-100.00,NE,45,0.0,4.0,30,0.00,,,0.00,meteohub,2013-08-18 21:11:00,
2013-08-18 16:13:00,95.2,58.8,-100.00,ESE,113,0.0,4.0,30,0.00,,,0.00,meteohub,2013-08-18 21:13:00,
2013-08-18 16:17:00,95.2,58.8,-100.00,ESE,113,2.0,3.0,30,0.00,,,0.00,meteohub,2013-08-18 21:17:00,
2013-08-18 16:19:00,95.2,58.8,-100.00,East,90,1.0,3.0,30,0.00,,,0.00,meteohub,2013-08-18 21:19:00,
2013-08-18 16:21:00,95.2,58.8,-100.00,ENE,68,3.0,3.0,30,0.00,,,0.00,meteohub,2013-08-18 21:21:00,
2013-08-18 16:25:00,94.8,58.5,-100.00,NNW,338,1.0,3.0,30,0.00,,,0.00,meteohub,2013-08-18 21:25:00,
2013-08-18 16:27:00,94.6,58.5,-100.00,SSW,203,1.0,3.0,30,0.00,,,0.00,meteohub,2013-08-18 21:27:00,
2013-08-18 16:29:00,94.5,59.2,-100.00,East,90,4.0,4.0,31,0.00,,,0.00,meteohub,2013-08-18 21:29:00,
2013-08-18 16:31:00,94.3,59.0,-100.00,ENE,68,1.0,4.0,31,0.00,,,0.00,meteohub,2013-08-18 21:31:00,
2013-08-18 16:33:00,94.3,59.0,-100.00,SSW,203,2.0,4.0,31,0.00,,,0.00,meteohub,2013-08-18 21:33:00,
2013-08-18 16:35:00,94.3,59.0,-100.00,NE,45,0.0,4.0,31,0.00,,,0.00,meteohub,2013-08-18 21:35:00,
2013-08-18 16:39:00,94.3,59.0,-100.00,SE,135,2.0,4.0,31,0.00,,,0.00,meteohub,2013-08-18 21:39:00,
2013-08-18 16:41:00,94.3,59.0,-100.00,East,90,0.0,4.0,31,0.00,,,0.00,meteohub,2013-08-18 21:41:00,
2013-08-18 16:43:00,94.3,59.0,-100.00,NNE,23,1.0,4.0,31,0.00,,,0.00,meteohub,2013-08-18 21:43:00,
2013-08-18 16:47:00,94.1,58.8,-100.00,ESE,113,0.0,2.0,31,0.00,,,0.00,meteohub,2013-08-18 21:47:00,
2013-08-18 16:49:00,94.1,58.8,-100.00,SSE,158,3.0,3.0,31,0.00,,,0.00,meteohub,2013-08-18 21:49:00,
2013-08-18 16:51:00,94.1,58.8,-100.00,SSE,158,3.0,3.0,31,0.00,,,0.00,meteohub,2013-08-18 21:51:00,
2013-08-18 16:53:00,94.1,58.8,-100.00,East,90,4.0,4.0,31,0.00,,,0.00,meteohub,2013-08-18 21:53:00,
2013-08-18 16:57:00,94.1,58.8,-100.00,NNE,23,0.0,4.0,31,0.00,,,0.00,meteohub,2013-08-18 21:57:00,
2013-08-18 16:59:00,94.3,59.0,-100.00,South,180,3.0,4.0,31,0.00,,,0.00,meteohub,2013-08-18 21:59:00,
2013-08-18 17:01:00,94.3,59.0,-100.00,NNE,23,1.0,4.0,31,0.00,,,0.00,meteohub,2013-08-18 22:01:00,
2013-08-18 17:02:00,94.3,59.0,-100.00,NNE,23,1.0,4.0,31,0.00,,,0.00,meteohub,2013-08-18 22:02:00,
2013-08-18 17:07:00,94.1,58.8,-100.00,NNE,23,1.0,4.0,31,0.00,,,0.00,meteohub,2013-08-18 22:07:00,
2013-08-18 17:13:00,93.6,59.2,-100.00,SSE,158,1.0,5.0,32,0.00,,,0.00,meteohub,2013-08-18 22:13:00,
2013-08-18 17:15:00,93.7,59.4,-100.00,SSW,203,4.0,5.0,32,0.00,,,0.00,meteohub,2013-08-18 22:15:00,
2013-08-18 17:17:00,93.7,59.4,-100.00,SSW,203,4.0,5.0,32,0.00,,,0.00,meteohub,2013-08-18 22:17:00,
2013-08-18 17:21:00,93.6,59.2,-100.00,NNE,23,1.0,5.0,32,0.00,,,0.00,meteohub,2013-08-18 22:21:00,
2013-08-18 17:23:00,93.6,59.2,-100.00,WSW,248,0.0,5.0,32,0.00,,,0.00,meteohub,2013-08-18 22:23:00,
2013-08-18 17:25:00,93.6,59.2,-100.00,WSW,248,0.0,5.0,32,0.00,,,0.00,meteohub,2013-08-18 22:25:00,
2013-08-18 17:27:00,93.4,58.3,-100.00,SE,135,2.0,5.0,31,0.00,,,0.00,meteohub,2013-08-18 22:27:00,
2013-08-18 17:32:00,93.4,58.3,-100.00,ESE,113,6.0,6.0,31,0.00,,,0.00,meteohub,2013-08-18 22:32:00,
2013-08-18 17:34:00,93.4,58.3,-100.00,ESE,113,2.0,4.0,31,0.00,,,0.00,meteohub,2013-08-18 22:34:00,
2013-08-18 17:36:00,93.2,58.1,-100.00,SE,135,1.0,6.0,31,0.00,,,0.00,meteohub,2013-08-18 22:36:00,
2013-08-18 17:38:00,93.0,57.9,-100.00,SE,135,6.0,6.0,31,0.00,,,0.00,meteohub,2013-08-18 22:38:00,
2013-08-18 17:42:00,93.0,57.9,-100.00,ESE,113,1.0,6.0,31,0.00,,,0.00,meteohub,2013-08-18 22:42:00,
2013-08-18 17:44:00,93.0,57.9,-100.00,ENE,68,1.0,6.0,31,0.00,,,0.00,meteohub,2013-08-18 22:44:00,
2013-08-18 17:46:00,92.8,57.7,-100.00,SE,135,2.0,6.0,31,0.00,,,0.00,meteohub,2013-08-18 22:46:00,
2013-08-18 17:50:00,92.7,57.6,-100.00,ENE,68,3.0,6.0,31,0.00,,,0.00,meteohub,2013-08-18 22:50:00,
2013-08-18 17:52:00,92.5,58.3,-100.00,South,180,2.0,6.0,32,0.00,,,0.00,meteohub,2013-08-18 22:52:00,
2013-08-18 17:54:00,92.3,57.2,-100.00,NE,45,1.0,6.0,31,0.00,,,0.00,meteohub,2013-08-18 22:54:00,
2013-08-18 17:58:00,92.3,58.1,-100.00,NE,45,0.0,4.0,32,0.00,,,0.00,meteohub,2013-08-18 22:58:00,
2013-08-18 18:00:00,92.1,58.1,-100.00,ESE,113,2.0,4.0,32,0.00,,,0.00,meteohub,2013-08-18 23:00:00,
2013-08-18 18:02:00,92.1,58.1,-100.00,ESE,113,2.0,4.0,32,0.00,,,0.00,meteohub,2013-08-18 23:02:00,
2013-08-18 18:04:00,92.1,58.1,-100.00,ESE,113,0.0,4.0,32,0.00,,,0.00,meteohub,2013-08-18 23:04:00,
2013-08-18 18:06:00,92.1,57.2,-100.00,SE,135,6.0,6.0,31,0.00,,,0.00,meteohub,2013-08-18 23:06:00,
2013-08-18 18:08:00,91.9,57.0,-100.00,NE,45,2.0,3.0,31,0.00,,,0.00,meteohub,2013-08-18 23:08:00,
2013-08-18 18:10:00,91.9,57.9,-100.00,NNW,338,0.0,6.0,32,0.00,,,0.00,meteohub,2013-08-18 23:10:00,
2013-08-18 18:12:00,91.8,57.7,-100.00,NNE,23,0.0,6.0,32,0.00,,,0.00,meteohub,2013-08-18 23:12:00,
2013-08-18 18:16:00,91.6,57.6,-100.00,ESE,113,2.0,6.0,32,0.00,,,0.00,meteohub,2013-08-18 23:16:00,
2013-08-18 18:17:00,91.6,57.6,-100.00,ESE,113,2.0,6.0,32,0.00,,,0.00,meteohub,2013-08-18 23:17:00,
2013-08-18 18:20:00,91.6,57.6,-100.00,SE,135,0.0,6.0,32,0.00,,,0.00,meteohub,2013-08-18 23:20:00,
2013-08-18 18:26:00,91.6,57.6,-100.00,ESE,113,4.0,4.0,32,0.00,,,0.00,meteohub,2013-08-18 23:26:00,
2013-08-18 18:28:00,91.2,57.2,-100.00,ENE,68,2.0,2.0,32,0.00,,,0.00,meteohub,2013-08-18 23:28:00,
2013-08-18 18:32:00,91.2,57.2,-100.00,NNE,23,0.0,4.0,32,0.00,,,0.00,meteohub,2013-08-18 23:32:00,
2013-08-18 18:34:00,91.2,57.2,-100.00,SSE,158,0.0,4.0,32,0.00,,,0.00,meteohub,2013-08-18 23:34:00,
2013-08-18 18:38:00,91.0,57.0,-100.00,North,0,0.0,4.0,32,0.00,,,0.00,meteohub,2013-08-18 23:38:00,
2013-08-18 18:40:00,90.9,56.8,-100.00,ENE,68,0.0,4.0,32,0.00,,,0.00,meteohub,2013-08-18 23:40:00,
2013-08-18 18:46:00,90.5,57.4,-100.00,ENE,68,0.0,0.0,33,0.00,,,0.00,meteohub,2013-08-18 23:46:00,
2013-08-18 18:47:00,90.5,57.4,-100.00,ENE,68,0.0,0.0,33,0.00,,,0.00,meteohub,2013-08-18 23:47:00,
2013-08-18 18:52:00,90.3,57.4,-100.00,NE,45,0.0,0.0,33,0.00,,,0.00,meteohub,2013-08-18 23:52:00,
2013-08-18 18:54:00,90.3,57.4,-100.00,NNE,23,5.0,0.0,33,0.00,,,0.00,meteohub,2013-08-18 23:54:00,
2013-08-18 18:56:00,90.1,57.2,-100.00,SSE,158,1.0,5.0,33,0.00,,,0.00,meteohub,2013-08-18 23:56:00,
2013-08-18 18:58:00,90.0,57.0,-100.00,NNW,338,1.0,5.0,33,0.00,,,0.00,meteohub,2013-08-18 23:58:00,
2013-08-18 19:02:00,90.0,57.0,-100.00,SE,135,4.0,5.0,33,0.00,,,0.00,meteohub,2013-08-19 00:02:00,
2013-08-18 19:04:00,90.0,57.0,-100.00,ENE,68,0.0,5.0,33,0.00,,,0.00,meteohub,2013-08-19 00:04:00,
2013-08-18 19:08:00,89.8,56.8,-100.00,NNE,23,2.0,5.0,33,0.00,,,0.00,meteohub,2013-08-19 00:08:00,
2013-08-18 19:12:00,89.4,57.4,-100.00,NE,45,2.0,5.0,34,0.00,,,0.00,meteohub,2013-08-19 00:12:00,
2013-08-18 19:14:00,89.4,57.4,-100.00,SE,135,0.0,5.0,34,0.00,,,0.00,meteohub,2013-08-19 00:14:00,
2013-08-18 19:16:00,89.4,57.4,-100.00,SSE,158,1.0,4.0,34,0.00,,,0.00,meteohub,2013-08-19 00:16:00,
2013-08-18 19:18:00,89.2,57.2,-100.00,SE,135,1.0,4.0,34,0.00,,,0.00,meteohub,2013-08-19 00:18:00,
2013-08-18 19:24:00,89.1,57.9,-100.00,NNE,23,0.0,2.0,35,0.00,,,0.00,meteohub,2013-08-19 00:24:00,
2013-08-18 19:26:00,88.9,57.7,-100.00,ENE,68,0.0,2.0,35,0.00,,,0.00,meteohub,2013-08-19 00:26:00,
2013-08-18 19:28:00,88.9,57.7,-100.00,NNE,23,0.0,2.0,35,0.00,,,0.00,meteohub,2013-08-19 00:28:00,
2013-08-18 19:32:00,88.7,57.6,-100.00,ENE,68,0.0,1.0,35,0.00,,,0.00,meteohub,2013-08-19 00:32:00,
2013-08-18 19:34:00,88.5,57.4,-100.00,ENE,68,0.0,1.0,35,0.00,,,0.00,meteohub,2013-08-19 00:34:00,
2013-08-18 19:36:00,88.5,57.4,-100.00,NE,45,0.0,1.0,35,0.00,,,0.00,meteohub,2013-08-19 00:36:00,
2013-08-18 19:38:00,88.3,57.2,-100.00,SE,135,0.0,1.0,35,0.00,,,0.00,meteohub,2013-08-19 00:38:00,
2013-08-18 19:42:00,88.3,57.9,-100.00,ENE,68,1.0,1.0,36,0.00,,,0.00,meteohub,2013-08-19 00:42:00,
2013-08-18 19:44:00,88.3,57.9,-100.00,East,90,0.0,1.0,36,0.00,,,0.00,meteohub,2013-08-19 00:44:00,
2013-08-18 19:48:00,88.0,57.7,-100.00,ENE,68,0.0,1.0,36,0.00,,,0.00,meteohub,2013-08-19 00:48:00,
2013-08-18 19:52:00,87.8,57.6,-100.00,North,0,0.0,1.0,36,0.00,,,0.00,meteohub,2013-08-19 00:52:00,
2013-08-18 19:54:00,87.8,57.6,-100.00,NNW,338,1.0,1.0,36,0.00,,,0.00,meteohub,2013-08-19 00:54:00,
2013-08-18 20:00:00,87.6,57.4,-100.00,West,270,0.0,4.0,36,0.00,,,0.00,meteohub,2013-08-19 01:00:00,
2013-08-18 20:02:00,87.6,57.4,-100.00,West,270,0.0,4.0,36,0.00,,,0.00,meteohub,2013-08-19 01:02:00,
2013-08-18 20:05:00,87.4,57.2,-100.00,SSE,158,2.0,4.0,36,0.00,,,0.00,meteohub,2013-08-19 01:05:00,
2013-08-18 20:09:00,87.1,56.8,-100.00,ESE,113,2.0,4.0,36,0.00,,,0.00,meteohub,2013-08-19 01:09:00,
2013-08-18 20:13:00,86.9,56.7,-100.00,SSW,203,0.0,2.0,36,0.00,,,0.00,meteohub,2013-08-19 01:13:00,
2013-08-18 20:17:00,86.7,57.4,-100.00,SE,135,0.0,2.0,37,0.00,,,0.00,meteohub,2013-08-19 01:17:00,
2013-08-18 20:21:00,86.7,57.4,-100.00,ENE,68,0.0,2.0,37,0.00,,,0.00,meteohub,2013-08-19 01:21:00,
2013-08-18 20:23:00,86.5,57.2,-100.00,ENE,68,0.0,2.0,37,0.00,,,0.00,meteohub,2013-08-19 01:23:00,
2013-08-18 20:25:00,86.5,57.2,-100.00,ENE,68,0.0,2.0,37,0.00,,,0.00,meteohub,2013-08-19 01:25:00,
2013-08-18 20:29:00,86.4,57.0,-100.00,East,90,0.0,2.0,37,0.00,,,0.00,meteohub,2013-08-19 01:29:00,
2013-08-18 20:32:00,86.2,56.8,-100.00,NE,45,0.0,0.0,37,0.00,,,0.00,meteohub,2013-08-19 01:32:00,
2013-08-18 20:33:00,86.2,56.8,-100.00,ENE,68,0.0,0.0,37,0.00,,,0.00,meteohub,2013-08-19 01:33:00,
2013-08-18 20:35:00,85.8,56.5,-100.00,NE,45,0.0,0.0,37,0.00,,,0.00,meteohub,2013-08-19 01:35:00,
2013-08-18 20:37:00,85.8,56.5,-100.00,NE,45,0.0,0.0,37,0.00,,,0.00,meteohub,2013-08-19 01:37:00,
2013-08-18 20:39:00,85.8,56.5,-100.00,NE,45,0.0,0.0,37,0.00,,,0.00,meteohub,2013-08-19 01:39:00,
2013-08-18 20:41:00,85.8,56.5,-100.00,NE,45,0.0,0.0,37,0.00,,,0.00,meteohub,2013-08-19 01:41:00,
2013-08-18 20:43:00,85.6,56.3,-100.00,ESE,113,0.0,0.0,37,0.00,,,0.00,meteohub,2013-08-19 01:43:00,
2013-08-18 20:45:00,85.6,56.3,-100.00,East,90,0.0,0.0,37,0.00,,,0.00,meteohub,2013-08-19 01:45:00,
2013-08-18 20:47:00,85.6,56.3,-100.00,East,90,0.0,0.0,37,0.00,,,0.00,meteohub,2013-08-19 01:47:00,
2013-08-18 20:49:00,85.3,56.1,-100.00,NE,45,0.0,0.0,37,0.00,,,0.00,meteohub,2013-08-19 01:49:00,
2013-08-18 20:51:00,85.3,56.8,-100.00,North,0,0.0,0.0,38,0.00,,,0.00,meteohub,2013-08-19 01:51:00,
2013-08-18 20:55:00,84.9,56.5,-100.00,West,270,0.0,0.0,38,0.00,,,0.00,meteohub,2013-08-19 01:55:00,
2013-08-18 20:57:00,84.9,56.5,-100.00,WNW,293,0.0,0.0,38,0.00,,,0.00,meteohub,2013-08-19 01:57:00,
2013-08-18 20:59:00,84.9,56.5,-100.00,NNW,338,0.0,0.0,38,0.00,,,0.00,meteohub,2013-08-19 01:59:00,
2013-08-18 21:01:00,84.7,56.3,-100.00,NE,45,0.0,0.0,38,0.00,,,0.00,meteohub,2013-08-19 02:01:00,
2013-08-18 21:05:00,84.6,56.1,-100.00,SE,135,0.0,0.0,38,0.00,,,0.00,meteohub,2013-08-19 02:05:00,
2013-08-18 21:07:00,84.6,56.1,-100.00,SE,135,0.0,0.0,38,0.00,,,0.00,meteohub,2013-08-19 02:07:00,
2013-08-18 21:09:00,84.4,55.9,-100.00,ESE,113,0.0,0.0,38,0.00,,,0.00,meteohub,2013-08-19 02:09:00,
2013-08-18 21:15:00,84.0,56.5,-100.00,South,180,0.0,0.0,39,0.00,,,0.00,meteohub,2013-08-19 02:15:00,
2013-08-18 21:17:00,84.0,56.5,-100.00,South,180,0.0,0.0,39,0.00,,,0.00,meteohub,2013-08-19 02:17:00,
2013-08-18 21:21:00,83.8,56.3,-100.00,South,180,0.0,0.0,39,0.00,,,0.00,meteohub,2013-08-19 02:21:00,
2013-08-18 21:23:00,83.8,56.3,-100.00,South,180,0.0,0.0,39,0.00,,,0.00,meteohub,2013-08-19 02:23:00,
2013-08-18 21:27:00,83.5,56.7,-100.00,South,180,0.0,0.0,40,0.00,,,0.00,meteohub,2013-08-19 02:27:00,
2013-08-18 21:29:00,83.3,56.5,-100.00,South,180,0.0,0.0,40,0.00,,,0.00,meteohub,2013-08-19 02:29:00,
2013-08-18 21:32:00,83.3,56.5,-100.00,South,180,0.0,0.0,40,0.00,,,0.00,meteohub,2013-08-19 02:32:00,
2013-08-18 21:35:00,82.9,56.1,-100.00,South,180,0.0,0.0,40,0.00,,,0.00,meteohub,2013-08-19 02:35:00,
2013-08-18 21:37:00,82.9,56.1,-100.00,South,180,0.0,0.0,40,0.00,,,0.00,meteohub,2013-08-19 02:37:00,
2013-08-18 21:39:00,82.9,56.1,-100.00,North,0,0.0,0.0,40,0.00,,,0.00,meteohub,2013-08-19 02:39:00,
2013-08-18 21:41:00,82.6,55.8,-100.00,North,0,0.0,0.0,40,0.00,,,0.00,meteohub,2013-08-19 02:41:00,
2013-08-18 21:45:00,82.6,56.5,-100.00,NNE,23,0.0,0.0,41,0.00,,,0.00,meteohub,2013-08-19 02:45:00,
2013-08-18 21:49:00,82.2,56.1,-100.00,NE,45,0.0,0.0,41,0.00,,,0.00,meteohub,2013-08-19 02:49:00,
2013-08-18 21:53:00,82.2,56.1,-100.00,NE,45,0.0,0.0,41,0.00,,,0.00,meteohub,2013-08-19 02:53:00,
2013-08-18 21:55:00,82.2,56.1,-100.00,NE,45,0.0,0.0,41,0.00,,,0.00,meteohub,2013-08-19 02:55:00,
2013-08-18 21:57:00,82.0,55.9,-100.00,ENE,68,0.0,0.0,41,0.00,,,0.00,meteohub,2013-08-19 02:57:00,
2013-08-18 21:59:00,82.0,55.9,-100.00,NNW,338,0.0,0.0,41,0.00,,,0.00,meteohub,2013-08-19 02:59:00,
2013-08-18 22:01:00,82.0,55.9,-100.00,NNW,338,0.0,0.0,41,0.00,,,0.00,meteohub,2013-08-19 03:01:00,
2013-08-18 22:03:00,81.7,55.8,-100.00,NNW,338,0.0,0.0,41,0.00,,,0.00,meteohub,2013-08-19 03:03:00,
2013-08-18 22:07:00,81.7,55.8,-100.00,ESE,113,0.0,0.0,41,0.00,,,0.00,meteohub,2013-08-19 03:07:00,
2013-08-18 22:09:00,81.7,56.3,-100.00,NNE,23,0.0,0.0,42,0.00,,,0.00,meteohub,2013-08-19 03:09:00,
2013-08-18 22:11:00,81.5,56.1,-100.00,SE,135,0.0,0.0,42,0.00,,,0.00,meteohub,2013-08-19 03:11:00,
2013-08-18 22:13:00,81.3,56.1,-100.00,SE,135,0.0,0.0,42,0.00,,,0.00,meteohub,2013-08-19 03:13:00,
2013-08-18 22:15:00,81.3,56.1,-100.00,SE,135,0.0,0.0,42,0.00,,,0.00,meteohub,2013-08-19 03:15:00,
2013-08-18 22:17:00,81.3,56.1,-100.00,SE,135,0.0,0.0,42,0.00,,,0.00,meteohub,2013-08-19 03:17:00,
2013-08-18 22:19:00,81.1,55.9,-100.00,SE,135,0.0,0.0,42,0.00,,,0.00,meteohub,2013-08-19 03:19:00,
2013-08-18 22:23:00,81.1,55.9,-100.00,SE,135,0.0,0.0,42,0.00,,,0.00,meteohub,2013-08-19 03:23:00,
2013-08-18 22:25:00,81.1,56.5,-100.00,SE,135,0.0,0.0,43,0.00,,,0.00,meteohub,2013-08-19 03:25:00,
2013-08-18 22:27:00,81.1,56.5,-100.00,SE,135,0.0,0.0,43,0.00,,,0.00,meteohub,2013-08-19 03:27:00,
2013-08-18 22:29:00,81.0,56.3,-100.00,SE,135,0.0,0.0,43,0.00,,,0.00,meteohub,2013-08-19 03:29:00,
2013-08-18 22:31:00,80.8,56.1,-100.00,SE,135,0.0,0.0,43,0.00,,,0.00,meteohub,2013-08-19 03:31:00,
2013-08-18 22:33:00,80.8,56.1,-100.00,SE,135,0.0,0.0,43,0.00,,,0.00,meteohub,2013-08-19 03:33:00,
2013-08-18 22:35:00,80.8,56.1,-100.00,SE,135,0.0,0.0,43,0.00,,,0.00,meteohub,2013-08-19 03:35:00,
2013-08-18 22:37:00,80.6,56.1,-100.00,SE,135,0.0,0.0,43,0.00,,,0.00,meteohub,2013-08-19 03:37:00,
2013-08-18 22:39:00,80.6,56.1,-100.00,SE,135,0.0,0.0,43,0.00,,,0.00,meteohub,2013-08-19 03:39:00,
2013-08-18 22:41:00,80.4,55.9,-100.00,SE,135,0.0,0.0,43,0.00,,,0.00,meteohub,2013-08-19 03:41:00,
2013-08-18 22:45:00,80.4,56.5,-100.00,SE,135,0.0,0.0,44,0.00,,,0.00,meteohub,2013-08-19 03:45:00,
2013-08-18 22:47:00,80.2,56.3,-100.00,SE,135,0.0,0.0,44,0.00,,,0.00,meteohub,2013-08-19 03:47:00,
2013-08-18 22:51:00,80.2,56.3,-100.00,SE,135,0.0,0.0,44,0.00,,,0.00,meteohub,2013-08-19 03:51:00,
2013-08-18 22:54:00,80.1,56.1,-100.00,SE,135,0.0,0.0,44,0.00,,,0.00,meteohub,2013-08-19 03:54:00,
2013-08-18 22:56:00,80.1,56.1,-100.00,SE,135,0.0,0.0,44,0.00,,,0.00,meteohub,2013-08-19 03:56:00,
2013-08-18 23:02:00,79.9,56.7,-100.00,SE,135,0.0,0.0,45,0.00,,,0.00,meteohub,2013-08-19 04:02:00,
2013-08-18 23:04:00,79.7,56.5,-100.00,SE,135,0.0,0.0,45,0.00,,,0.00,meteohub,2013-08-19 04:04:00,
2013-08-18 23:10:00,79.5,56.8,-100.00,SE,135,0.0,0.0,46,0.00,,,0.00,meteohub,2013-08-19 04:10:00,
2013-08-18 23:12:00,79.5,56.8,-100.00,SE,135,0.0,0.0,46,0.00,,,0.00,meteohub,2013-08-19 04:12:00,
2013-08-18 23:14:00,79.3,56.8,-100.00,SE,135,0.0,0.0,46,0.00,,,0.00,meteohub,2013-08-19 04:14:00,
2013-08-18 23:18:00,79.3,56.8,-100.00,SE,135,0.0,0.0,46,0.00,,,0.00,meteohub,2013-08-19 04:18:00,
2013-08-18 23:20:00,79.2,56.7,-100.00,SE,135,0.0,0.0,46,0.00,,,0.00,meteohub,2013-08-19 04:20:00,
2013-08-18 23:22:00,79.0,56.5,-100.00,SE,135,0.0,0.0,46,0.00,,,0.00,meteohub,2013-08-19 04:22:00,
2013-08-18 23:26:00,78.8,56.8,-100.00,SE,135,0.0,0.0,47,0.00,,,0.00,meteohub,2013-08-19 04:26:00,
2013-08-18 23:28:00,78.6,56.7,-100.00,SE,135,0.0,0.0,47,0.00,,,0.00,meteohub,2013-08-19 04:28:00,
2013-08-18 23:34:00,78.4,57.2,-100.00,SE,135,0.0,0.0,48,0.00,,,0.00,meteohub,2013-08-19 04:34:00,
2013-08-18 23:36:00,78.4,57.2,-100.00,SE,135,0.0,0.0,48,0.00,,,0.00,meteohub,2013-08-19 04:36:00,
2013-08-18 23:40:00,78.3,57.0,-100.00,SE,135,0.0,0.0,48,0.00,,,0.00,meteohub,2013-08-19 04:40:00,
2013-08-18 23:42:00,78.3,57.0,-100.00,SE,135,0.0,0.0,48,0.00,,,0.00,meteohub,2013-08-19 04:42:00,
2013-08-18 23:46:00,78.1,56.8,-100.00,SE,135,0.0,0.0,48,0.00,,,0.00,meteohub,2013-08-19 04:46:00,
2013-08-18 23:47:00,77.9,56.7,-100.00,SE,135,0.0,0.0,48,0.00,,,0.00,meteohub,2013-08-19 04:47:00,
2013-08-18 23:50:00,77.9,56.7,-100.00,SE,135,0.0,0.0,48,0.00,,,0.00,meteohub,2013-08-19 04:50:00,
2013-08-18 23:52:00,77.7,57.0,-100.00,SE,135,0.0,0.0,49,0.00,,,0.00,meteohub,2013-08-19 04:52:00,
2013-08-18 23:54:00,77.7,57.0,-100.00,SE,135,0.0,0.0,49,0.00,,,0.00,meteohub,2013-08-19 04:54:00,
2013-08-18 23:56:00,77.5,56.8,-100.00,SE,135,0.0,0.0,49,0.00,,,0.00,meteohub,2013-08-19 04:56:00,